AHY3465 OJAI-OBBI

Flight info

Callsign AHY3465
Flight time 1h 58m
Altitude 37000
Route KULDI N318 NADEN/N0378F210 N318 LADNA
Aircraft A320/M-SDE3FGHIRWY/LB1

Departure

Time 2026-05-05 18:18
Airport Queen Alia International Airport (OJAI)

Arrival

Time 2026-05-05 20:16
Airport Bahrain International Airport (OBBI)
Time Latitude Longitude Altitude Speed Heading
2026-05-05 17:34 31.72092 35.98870 2372 ft 0 kts 351°
2026-05-05 18:06 31.72080 35.98872 2371 ft 4 kts 349°
2026-05-05 18:06 31.72062 35.98877 2371 ft 4 kts 344°
2026-05-05 18:06 31.72028 35.98889 2371 ft 4 kts 343°
2026-05-05 18:06 31.72004 35.98895 2371 ft 4 kts 27°
2026-05-05 18:07 31.71999 35.98892 2371 ft 0 kts 81°
2026-05-05 18:08 31.71996 35.98875 2371 ft 2 kts 81°
2026-05-05 18:08 31.71994 35.98856 2371 ft 2 kts 81°
2026-05-05 18:08 31.71991 35.98837 2371 ft 2 kts 81°
2026-05-05 18:08 31.71989 35.98818 2371 ft 2 kts 81°
2026-05-05 18:09 31.71986 35.98799 2371 ft 0 kts 81°
2026-05-05 18:11 31.71987 35.98806 2371 ft 3 kts 81°
2026-05-05 18:11 31.71990 35.98852 2371 ft 7 kts 96°
2026-05-05 18:12 31.71951 35.98897 2371 ft 10 kts 162°
2026-05-05 18:12 31.71876 35.98922 2371 ft 13 kts 145°
2026-05-05 18:12 31.71864 35.99045 2371 ft 17 kts 81°
2026-05-05 18:12 31.71882 35.99175 2371 ft 16 kts 81°
2026-05-05 18:13 31.71903 35.99324 2372 ft 21 kts 81°
2026-05-05 18:13 31.71930 35.99506 2373 ft 24 kts 80°
2026-05-05 18:13 31.71960 35.99716 2378 ft 28 kts 80°
2026-05-05 18:13 31.71995 35.99956 2374 ft 31 kts 80°
2026-05-05 18:14 31.72034 36.00222 2378 ft 35 kts 80°
2026-05-05 18:14 31.72074 36.00506 2376 ft 35 kts 80°
2026-05-05 18:14 31.72116 36.00789 2377 ft 36 kts 80°
2026-05-05 18:14 31.72158 36.01077 2378 ft 36 kts 81°
2026-05-05 18:15 31.72199 36.01367 2379 ft 36 kts 81°
2026-05-05 18:15 31.72242 36.01656 2379 ft 35 kts 80°
2026-05-05 18:15 31.72202 36.01794 2380 ft 17 kts 160°
2026-05-05 18:15 31.72143 36.01808 2380 ft 0 kts 171°
2026-05-05 18:17 31.72140 36.01808 2380 ft 3 kts 171°
2026-05-05 18:17 31.72062 36.01823 2382 ft 16 kts 170°
2026-05-05 18:17 31.71983 36.01759 2382 ft 17 kts 249°
2026-05-05 18:17 31.71935 36.01453 2381 ft 70 kts 260°
2026-05-05 18:18 31.71815 36.00632 2379 ft 131 kts 260°
2026-05-05 18:18 31.71630 35.99397 2470 ft 167 kts 262°
2026-05-05 18:18 31.71413 35.98079 3137 ft 166 kts 261°
2026-05-05 18:18 31.71189 35.96716 3681 ft 177 kts 262°
2026-05-05 18:19 31.70968 35.95202 3915 ft 199 kts 262°
2026-05-05 18:19 31.70740 35.93522 4141 ft 224 kts 263°
2026-05-05 18:19 31.70450 35.91627 4529 ft 247 kts 255°
2026-05-05 18:19 31.69460 35.89947 5270 ft 261 kts 218°
2026-05-05 18:20 31.67761 35.89150 6094 ft 272 kts 194°
2026-05-05 18:20 31.65863 35.88929 6971 ft 277 kts 187°
2026-05-05 18:20 31.63926 35.88853 7810 ft 280 kts 187°
2026-05-05 18:20 31.61973 35.88737 8659 ft 281 kts 190°
2026-05-05 18:21 31.60017 35.88527 9496 ft 284 kts 192°
2026-05-05 18:21 31.58047 35.88222 10279 ft 286 kts 194°
2026-05-05 18:21 31.56082 35.87853 10982 ft 289 kts 195°
2026-05-05 18:21 31.54090 35.87439 11703 ft 292 kts 196°
2026-05-05 18:22 31.52076 35.87005 12397 ft 297 kts 194°
2026-05-05 18:22 31.49977 35.87046 13056 ft 312 kts 170°
2026-05-05 18:22 31.48022 35.88183 13695 ft 329 kts 143°
2026-05-05 18:22 31.46564 35.90364 13861 ft 357 kts 116°
2026-05-05 18:23 31.45669 35.93181 14022 ft 379 kts 108°
2026-05-05 18:23 31.44953 35.96174 14475 ft 387 kts 105°
2026-05-05 18:23 31.44309 35.99270 14873 ft 391 kts 104°
2026-05-05 18:23 31.43678 36.02376 14988 ft 391 kts 104°
2026-05-05 18:24 31.43022 36.05467 15009 ft 391 kts 105°
2026-05-05 18:24 31.42328 36.08544 15004 ft 391 kts 106°
2026-05-05 18:24 31.41602 36.11606 15004 ft 390 kts 107°
2026-05-05 18:24 31.40855 36.14665 15002 ft 390 kts 107°
2026-05-05 18:25 31.40103 36.17719 15008 ft 391 kts 107°
2026-05-05 18:25 31.39605 36.19740 15005 ft 390 kts 107°
2026-05-05 18:25 31.38599 36.23831 15177 ft 393 kts 107°
2026-05-05 18:25 31.37843 36.26916 15823 ft 395 kts 107°
2026-05-05 18:26 31.37085 36.30030 16453 ft 399 kts 107°
2026-05-05 18:26 31.36326 36.33158 17065 ft 402 kts 107°
2026-05-05 18:26 31.35561 36.36318 17653 ft 405 kts 107°
2026-05-05 18:26 31.34798 36.39464 18235 ft 408 kts 108°
2026-05-05 18:27 31.34015 36.42675 18752 ft 412 kts 108°
2026-05-05 18:27 31.33223 36.45922 19219 ft 417 kts 108°
2026-05-05 18:27 31.32421 36.49199 19680 ft 421 kts 108°
2026-05-05 18:27 31.31624 36.52518 20121 ft 427 kts 106°
2026-05-05 18:28 31.30888 36.59517 21015 ft 440 kts 96°
2026-05-05 18:28 31.30628 36.63103 21472 ft 444 kts 96°
2026-05-05 18:28 31.30364 36.66724 21923 ft 449 kts 96°
2026-05-05 18:29 31.30101 36.70339 22365 ft 454 kts 97°
2026-05-05 18:29 31.29830 36.74036 22791 ft 458 kts 97°
2026-05-05 18:29 31.29553 36.77767 23157 ft 464 kts 97°
2026-05-05 18:29 31.29269 36.81558 23551 ft 469 kts 97°
2026-05-05 18:30 31.28984 36.85375 23902 ft 473 kts 97°
2026-05-05 18:30 31.28698 36.89219 24262 ft 477 kts 97°
2026-05-05 18:30 31.28408 36.93091 24662 ft 479 kts 97°
2026-05-05 18:30 31.28117 36.96971 25048 ft 481 kts 97°
2026-05-05 18:31 31.27822 37.00887 25383 ft 484 kts 97°
2026-05-05 18:31 31.27523 37.04818 25698 ft 487 kts 97°
2026-05-05 18:31 31.27223 37.08784 26025 ft 490 kts 98°
2026-05-05 18:31 31.26921 37.12762 26357 ft 493 kts 98°
2026-05-05 18:32 31.26613 37.16766 26681 ft 496 kts 98°
2026-05-05 18:32 31.26300 37.20784 27002 ft 498 kts 99°
2026-05-05 18:32 31.25737 37.24779 27281 ft 497 kts 108°
2026-05-05 18:32 31.24740 37.28573 27574 ft 495 kts 115°
2026-05-05 18:33 31.23584 37.32373 27889 ft 497 kts 115°
2026-05-05 18:33 31.22424 37.36190 28197 ft 500 kts 115°
2026-05-05 18:33 31.21257 37.40033 28497 ft 502 kts 115°
2026-05-05 18:33 31.20089 37.43888 28791 ft 505 kts 115°
2026-05-05 18:34 31.18914 37.47769 29057 ft 507 kts 115°
2026-05-05 18:34 31.17736 37.51666 29316 ft 510 kts 115°
2026-05-05 18:34 31.16549 37.55575 29585 ft 512 kts 115°
2026-05-05 18:34 31.15353 37.59505 29858 ft 514 kts 115°
2026-05-05 18:35 31.14152 37.63448 30096 ft 516 kts 115°
2026-05-05 18:35 31.12967 37.67352 30324 ft 518 kts 115°
2026-05-05 18:35 31.11767 37.71316 30534 ft 519 kts 115°
2026-05-05 18:35 31.10557 37.75305 30724 ft 521 kts 115°
2026-05-05 18:36 31.09346 37.79293 30922 ft 523 kts 115°
2026-05-05 18:36 31.08129 37.83297 31151 ft 523 kts 115°
2026-05-05 18:36 31.06912 37.87295 31436 ft 523 kts 115°
2026-05-05 18:36 31.05687 37.91295 31718 ft 522 kts 115°
2026-05-05 18:37 31.04462 37.95278 32005 ft 521 kts 116°
2026-05-05 18:37 31.03236 37.99253 32273 ft 521 kts 116°
2026-05-05 18:37 31.02011 38.03219 32554 ft 520 kts 116°
2026-05-05 18:37 31.00787 38.07187 32825 ft 520 kts 116°
2026-05-05 18:38 30.99568 38.11147 33101 ft 519 kts 116°
2026-05-05 18:38 30.98760 38.13772 33291 ft 519 kts 116°
2026-05-05 18:38 30.97543 38.17731 33580 ft 518 kts 116°
2026-05-05 18:38 30.95938 38.22961 33959 ft 516 kts 116°
2026-05-05 18:39 30.94727 38.26893 34240 ft 515 kts 116°
2026-05-05 18:39 30.93514 38.30808 34498 ft 513 kts 117°
2026-05-05 18:39 30.92299 38.34711 34761 ft 512 kts 117°
2026-05-05 18:39 30.91082 38.38609 34992 ft 512 kts 117°
2026-05-05 18:40 30.90262 38.41237 35140 ft 511 kts 117°
2026-05-05 18:40 30.89047 38.45132 35358 ft 511 kts 117°
2026-05-05 18:40 30.87838 38.49019 35559 ft 510 kts 117°
2026-05-05 18:40 30.86632 38.52900 35776 ft 510 kts 117°
2026-05-05 18:41 30.85424 38.56776 35982 ft 509 kts 117°
2026-05-05 18:41 30.84229 38.60596 36187 ft 508 kts 117°
2026-05-05 18:41 30.83020 38.64460 36387 ft 508 kts 117°
2026-05-05 18:41 30.81812 38.68316 36550 ft 507 kts 118°
2026-05-05 18:42 30.80602 38.72163 36744 ft 506 kts 118°
2026-05-05 18:42 30.79388 38.76006 36939 ft 505 kts 119°
2026-05-05 18:42 30.76422 38.83283 37025 ft 496 kts 125°
2026-05-05 18:43 30.73336 38.90457 37007 ft 495 kts 126°
2026-05-05 18:43 30.70254 38.97604 37040 ft 494 kts 126°
2026-05-05 18:44 30.67202 39.04699 37040 ft 494 kts 125°
2026-05-05 18:44 30.64132 39.11841 37041 ft 494 kts 125°
2026-05-05 18:45 30.61061 39.18969 37028 ft 493 kts 126°
2026-05-05 18:45 30.57979 39.26089 37046 ft 493 kts 126°
2026-05-05 18:46 30.54903 39.33190 37050 ft 493 kts 126°
2026-05-05 18:46 30.51817 39.40298 37036 ft 493 kts 126°
2026-05-05 18:47 30.48730 39.47402 37045 ft 494 kts 126°
2026-05-05 18:47 30.45649 39.54470 37053 ft 494 kts 126°
2026-05-05 18:48 30.42544 39.61579 37054 ft 495 kts 126°
2026-05-05 18:48 30.38909 39.68167 37055 ft 480 kts 137°
2026-05-05 18:49 30.34913 39.74371 37053 ft 480 kts 137°
2026-05-05 18:49 30.30924 39.80586 37033 ft 481 kts 137°
2026-05-05 18:50 30.26928 39.86794 37040 ft 481 kts 137°
2026-05-05 18:50 30.22925 39.92992 37015 ft 481 kts 137°
2026-05-05 18:51 30.18922 39.99188 37042 ft 481 kts 137°
2026-05-05 18:51 30.14909 40.05373 37028 ft 481 kts 138°
2026-05-05 18:52 30.10894 40.11562 37046 ft 481 kts 138°
2026-05-05 18:52 30.06905 40.17711 37058 ft 482 kts 138°
2026-05-05 18:53 30.02885 40.23902 37063 ft 482 kts 138°
2026-05-05 18:53 29.98851 40.30087 37049 ft 482 kts 138°
2026-05-05 18:54 29.94817 40.36259 37059 ft 482 kts 138°
2026-05-05 18:54 29.90802 40.42414 37060 ft 482 kts 138°
2026-05-05 18:55 29.86768 40.48589 37046 ft 482 kts 139°
2026-05-05 18:55 29.82730 40.54768 37048 ft 482 kts 138°
2026-05-05 18:56 29.78682 40.60939 37050 ft 482 kts 139°
2026-05-05 18:56 29.74870 40.67330 37052 ft 491 kts 133°
2026-05-05 18:57 29.71280 40.74018 37024 ft 491 kts 133°
2026-05-05 18:57 29.67682 40.80712 37031 ft 491 kts 133°
2026-05-05 18:58 29.64070 40.87398 37039 ft 492 kts 133°
2026-05-05 18:58 29.60458 40.94068 37012 ft 491 kts 133°
2026-05-05 18:59 29.56847 41.00739 37014 ft 491 kts 133°
2026-05-05 18:59 29.53233 41.07422 37031 ft 491 kts 133°
2026-05-05 19:00 29.49623 41.14079 37020 ft 491 kts 133°
2026-05-05 19:00 29.46028 41.20684 37030 ft 493 kts 133°
2026-05-05 19:01 29.42351 41.27406 37024 ft 500 kts 133°
2026-05-05 19:01 29.38639 41.34201 37025 ft 505 kts 133°
2026-05-05 19:02 29.34896 41.41054 37022 ft 508 kts 133°
2026-05-05 19:02 29.31132 41.47943 37016 ft 510 kts 133°
2026-05-05 19:03 29.27352 41.54836 37010 ft 511 kts 133°
2026-05-05 19:03 29.23565 41.61734 37009 ft 512 kts 133°
2026-05-05 19:04 29.19766 41.68645 37019 ft 513 kts 133°
2026-05-05 19:04 29.15959 41.75558 37024 ft 514 kts 133°
2026-05-05 19:05 29.12147 41.82465 37008 ft 513 kts 133°
2026-05-05 19:05 29.08351 41.89312 37014 ft 513 kts 133°
2026-05-05 19:06 29.04536 41.96197 37016 ft 513 kts 133°
2026-05-05 19:06 29.00715 42.03078 36976 ft 513 kts 133°
2026-05-05 19:07 28.96895 42.09953 36995 ft 513 kts 133°
2026-05-05 19:07 28.93073 42.16830 36998 ft 513 kts 133°
2026-05-05 19:08 28.89235 42.23699 36977 ft 513 kts 133°
2026-05-05 19:08 28.85387 42.30574 36978 ft 514 kts 133°
2026-05-05 19:09 28.81542 42.37456 36984 ft 515 kts 133°
2026-05-05 19:09 28.77680 42.44356 36967 ft 515 kts 133°
2026-05-05 19:10 28.73818 42.51239 36980 ft 516 kts 133°
2026-05-05 19:10 28.69944 42.58114 36985 ft 516 kts 133°
2026-05-05 19:11 28.66099 42.64951 36967 ft 515 kts 133°
2026-05-05 19:11 28.62331 42.71927 36984 ft 520 kts 129°
2026-05-05 19:12 28.58928 42.79241 36986 ft 525 kts 126°
2026-05-05 19:12 28.55654 42.86658 36983 ft 524 kts 127°
2026-05-05 19:13 28.52286 42.94003 36986 ft 523 kts 128°
2026-05-05 19:13 28.48839 43.01265 36989 ft 522 kts 128°
2026-05-05 19:14 28.45381 43.08523 36974 ft 522 kts 128°
2026-05-05 19:14 28.41944 43.15789 36978 ft 522 kts 128°
2026-05-05 19:15 28.38525 43.23061 36962 ft 522 kts 128°
2026-05-05 19:15 28.35097 43.30326 36975 ft 521 kts 128°
2026-05-05 19:16 28.31723 43.37469 36957 ft 504 kts 128°
2026-05-05 19:16 28.28417 43.44435 36940 ft 499 kts 129°
2026-05-05 19:17 28.25103 43.51354 36942 ft 499 kts 129°
2026-05-05 19:17 28.21790 43.58268 36946 ft 499 kts 129°
2026-05-05 19:18 28.18491 43.65180 36923 ft 498 kts 129°
2026-05-05 19:18 28.15166 43.72081 36929 ft 498 kts 129°
2026-05-05 19:19 28.11847 43.78913 36935 ft 498 kts 129°
2026-05-05 19:19 28.08500 43.85787 36920 ft 498 kts 129°
2026-05-05 19:20 28.05161 43.92663 36908 ft 498 kts 129°
2026-05-05 19:20 28.01815 43.99550 36933 ft 498 kts 129°
2026-05-05 19:21 27.98470 44.06419 36928 ft 498 kts 129°
2026-05-05 19:21 27.95130 44.13288 36938 ft 498 kts 129°
2026-05-05 19:22 27.91801 44.20154 36939 ft 498 kts 128°
2026-05-05 19:22 27.88495 44.27060 36919 ft 499 kts 128°
2026-05-05 19:23 27.85197 44.33956 36926 ft 498 kts 128°
2026-05-05 19:23 27.81893 44.40838 36932 ft 498 kts 128°
2026-05-05 19:24 27.78582 44.47711 36910 ft 498 kts 128°
2026-05-05 19:24 27.75262 44.54572 36916 ft 498 kts 128°
2026-05-05 19:25 27.71963 44.61399 36923 ft 498 kts 128°
2026-05-05 19:25 27.68644 44.68259 36913 ft 498 kts 128°
2026-05-05 19:26 27.65876 44.74008 36910 ft 501 kts 125°
2026-05-05 19:26 27.64544 44.77689 36907 ft 512 kts 115°
2026-05-05 19:26 27.63683 44.81633 36905 ft 520 kts 109°
2026-05-05 19:27 27.62248 44.89624 36904 ft 520 kts 109°
2026-05-05 19:27 27.60789 44.97612 36904 ft 520 kts 109°
2026-05-05 19:28 27.59309 45.05607 36901 ft 521 kts 109°
2026-05-05 19:28 27.57833 45.13544 36905 ft 521 kts 109°
2026-05-05 19:29 27.56345 45.21555 36919 ft 522 kts 109°
2026-05-05 19:29 27.54856 45.29563 36906 ft 522 kts 109°
2026-05-05 19:30 27.53357 45.37583 36876 ft 523 kts 109°
2026-05-05 19:30 27.51844 45.45606 36887 ft 524 kts 109°
2026-05-05 19:31 27.50332 45.53598 36889 ft 525 kts 109°
2026-05-05 19:31 27.48809 45.61643 36888 ft 525 kts 109°
2026-05-05 19:32 27.47284 45.69689 36863 ft 526 kts 109°
2026-05-05 19:32 27.45757 45.77738 36874 ft 525 kts 109°
2026-05-05 19:33 27.44223 45.85783 36880 ft 526 kts 109°
2026-05-05 19:33 27.42676 45.93821 36886 ft 526 kts 109°
2026-05-05 19:34 27.41131 46.01868 36897 ft 526 kts 109°
2026-05-05 19:35 27.38800 46.13947 36875 ft 526 kts 109°
2026-05-05 19:35 27.37234 46.22001 36890 ft 527 kts 109°
2026-05-05 19:36 27.35660 46.30055 36887 ft 527 kts 109°
2026-05-05 19:36 27.34156 46.38135 36887 ft 528 kts 108°
2026-05-05 19:37 27.32778 46.46215 36875 ft 529 kts 107°
2026-05-05 19:37 27.31400 46.54348 36885 ft 529 kts 108°
2026-05-05 19:38 27.29986 46.62461 36884 ft 529 kts 108°
2026-05-05 19:38 27.28540 46.70578 36882 ft 529 kts 108°
2026-05-05 19:39 27.27099 46.78687 36882 ft 529 kts 108°
2026-05-05 19:39 27.25657 46.86792 36868 ft 528 kts 108°
2026-05-05 19:40 27.24212 46.94875 36878 ft 527 kts 108°
2026-05-05 19:40 27.22769 47.02958 36881 ft 527 kts 108°
2026-05-05 19:41 27.21318 47.11028 36880 ft 527 kts 108°
2026-05-05 19:41 27.19862 47.19091 36878 ft 527 kts 108°
2026-05-05 19:42 27.18406 47.27151 36851 ft 526 kts 108°
2026-05-05 19:42 27.16945 47.35209 36858 ft 526 kts 108°
2026-05-05 19:43 27.15489 47.43207 36854 ft 525 kts 109°
2026-05-05 19:43 27.14016 47.51235 36852 ft 525 kts 109°
2026-05-05 19:44 27.12536 47.59256 36841 ft 525 kts 109°
2026-05-05 19:44 27.11048 47.67271 36831 ft 524 kts 108°
2026-05-05 19:45 27.09563 47.75285 36840 ft 523 kts 109°
2026-05-05 19:45 27.08083 47.83225 36836 ft 523 kts 109°
2026-05-05 19:46 27.06594 47.91225 36832 ft 523 kts 109°
2026-05-05 19:46 27.05074 47.99192 36829 ft 521 kts 110°
2026-05-05 19:47 27.03347 48.07084 36812 ft 519 kts 111°
2026-05-05 19:47 27.01521 48.14915 36819 ft 518 kts 111°
2026-05-05 19:48 26.99741 48.22701 36802 ft 519 kts 111°
2026-05-05 19:48 26.98002 48.30547 36810 ft 518 kts 110°
2026-05-05 19:49 26.96265 48.38393 36808 ft 518 kts 111°
2026-05-05 19:49 26.94505 48.46220 36798 ft 517 kts 111°
2026-05-05 19:50 26.92740 48.54038 36799 ft 517 kts 110°
2026-05-05 19:50 26.90975 48.61852 36795 ft 516 kts 111°
2026-05-05 19:51 26.89205 48.69645 36787 ft 516 kts 111°
2026-05-05 19:51 26.87472 48.77389 36781 ft 516 kts 109°
2026-05-05 19:52 26.86006 48.85282 36776 ft 518 kts 107°
2026-05-05 19:52 26.84679 48.93219 36770 ft 518 kts 107°
2026-05-05 19:53 26.83293 49.01132 36771 ft 518 kts 107°
2026-05-05 19:53 26.81841 49.09023 36756 ft 517 kts 108°
2026-05-05 19:54 26.80373 49.16911 36285 ft 521 kts 108°
2026-05-05 19:54 26.79629 49.20924 35166 ft 529 kts 107°
2026-05-05 19:54 26.78888 49.24947 33832 ft 529 kts 107°
2026-05-05 19:54 26.78146 49.28986 32444 ft 531 kts 106°
2026-05-05 19:55 26.77403 49.33025 31722 ft 527 kts 105°
2026-05-05 19:55 26.76666 49.37027 31034 ft 523 kts 106°
2026-05-05 19:55 26.75673 49.40896 30422 ft 514 kts 112°
2026-05-05 19:55 26.74541 49.44674 29812 ft 510 kts 112°
2026-05-05 19:56 26.73419 49.48426 29147 ft 505 kts 112°
2026-05-05 19:56 26.72311 49.52131 28568 ft 499 kts 112°
2026-05-05 19:56 26.71216 49.55792 27974 ft 493 kts 112°
2026-05-05 19:56 26.70132 49.59414 27393 ft 488 kts 112°
2026-05-05 19:57 26.69060 49.62991 26811 ft 482 kts 111°
2026-05-05 19:57 26.68356 49.65338 26463 ft 479 kts 111°
2026-05-05 19:57 26.66956 49.70022 25764 ft 472 kts 111°
2026-05-05 19:57 26.65935 49.73439 25249 ft 463 kts 111°
2026-05-05 19:58 26.64934 49.76783 24752 ft 445 kts 111°
2026-05-05 19:58 26.63968 49.80005 24281 ft 429 kts 111°
2026-05-05 19:58 26.63034 49.83111 23810 ft 415 kts 111°
2026-05-05 19:58 26.62113 49.86153 23347 ft 413 kts 111°
2026-05-05 19:59 26.61192 49.89188 22809 ft 411 kts 111°
2026-05-05 19:59 26.60275 49.92211 22290 ft 409 kts 111°
2026-05-05 19:59 26.59369 49.95212 21816 ft 406 kts 111°
2026-05-05 19:59 26.58466 49.98193 21355 ft 403 kts 111°
2026-05-05 20:00 26.57567 50.01147 20938 ft 399 kts 111°
2026-05-05 20:00 26.56679 50.04064 20529 ft 395 kts 111°
2026-05-05 20:00 26.55798 50.06958 20079 ft 390 kts 110°
2026-05-05 20:00 26.54933 50.09805 19314 ft 386 kts 110°
2026-05-05 20:01 26.54068 50.12643 18884 ft 385 kts 110°
2026-05-05 20:01 26.53209 50.15461 18492 ft 382 kts 110°
2026-05-05 20:01 26.52357 50.18260 18096 ft 379 kts 110°
2026-05-05 20:01 26.51516 50.21035 17609 ft 375 kts 110°
2026-05-05 20:02 26.50685 50.23775 17007 ft 372 kts 110°
2026-05-05 20:02 26.49855 50.26500 16592 ft 369 kts 110°
2026-05-05 20:02 26.49031 50.29204 16176 ft 367 kts 110°
2026-05-05 20:02 26.48209 50.31894 15767 ft 365 kts 110°
2026-05-05 20:03 26.47427 50.34587 15369 ft 364 kts 104°
2026-05-05 20:03 26.47098 50.37372 14979 ft 361 kts 91°
2026-05-05 20:03 26.47334 50.40123 14311 ft 356 kts 77°
2026-05-05 20:03 26.48147 50.42733 13887 ft 355 kts 65°
2026-05-05 20:04 26.49110 50.45273 13471 ft 355 kts 66°
2026-05-05 20:04 26.50052 50.47817 13027 ft 353 kts 66°
2026-05-05 20:04 26.50979 50.50349 12613 ft 351 kts 66°
2026-05-05 20:04 26.51883 50.52836 12205 ft 349 kts 66°
2026-05-05 20:05 26.52797 50.55340 11786 ft 347 kts 66°
2026-05-05 20:05 26.53707 50.57831 11375 ft 345 kts 67°
2026-05-05 20:05 26.54294 50.60412 10976 ft 343 kts 88°
2026-05-05 20:05 26.53915 50.63008 10590 ft 339 kts 114°
2026-05-05 20:06 26.52628 50.65135 10342 ft 323 kts 139°
2026-05-05 20:06 26.50837 50.66516 9991 ft 308 kts 154°
2026-05-05 20:06 26.49036 50.67795 9601 ft 308 kts 143°
2026-05-05 20:06 26.47549 50.69504 9246 ft 308 kts 127°
2026-05-05 20:07 26.46346 50.71477 8870 ft 306 kts 127°
2026-05-05 20:07 26.44856 50.73118 8509 ft 299 kts 151°
2026-05-05 20:07 26.42949 50.73903 8144 ft 290 kts 176°
2026-05-05 20:07 26.40977 50.73739 7757 ft 282 kts 200°
2026-05-05 20:08 26.39303 50.72687 7363 ft 275 kts 226°
2026-05-05 20:08 26.38294 50.70932 6764 ft 269 kts 253°
2026-05-05 20:08 26.38187 50.68865 6215 ft 272 kts 282°
2026-05-05 20:08 26.38953 50.66970 5771 ft 274 kts 301°
2026-05-05 20:09 26.39992 50.65178 5316 ft 275 kts 301°
2026-05-05 20:09 26.41033 50.63383 4856 ft 277 kts 301°
2026-05-05 20:09 26.42079 50.61571 4381 ft 279 kts 301°
2026-05-05 20:09 26.43126 50.59751 4040 ft 275 kts 301°
2026-05-05 20:10 26.44136 50.57999 3921 ft 262 kts 301°
2026-05-05 20:10 26.45091 50.56338 3768 ft 245 kts 302°
2026-05-05 20:10 26.45994 50.54762 3542 ft 239 kts 302°
2026-05-05 20:10 26.46848 50.53190 3243 ft 235 kts 292°
2026-05-05 20:11 26.46996 50.51432 2897 ft 229 kts 250°
2026-05-05 20:11 26.46102 50.50047 2513 ft 220 kts 206°
2026-05-05 20:11 26.44663 50.49615 2187 ft 215 kts 180°
2026-05-05 20:11 26.43682 50.49623 2103 ft 214 kts 175°
2026-05-05 20:12 26.42180 50.49730 1994 ft 217 kts 174°
2026-05-05 20:12 26.40671 50.49830 1995 ft 218 kts 175°
2026-05-05 20:12 26.39152 50.49885 2000 ft 219 kts 177°
2026-05-05 20:12 26.37633 50.49898 1997 ft 217 kts 178°
2026-05-05 20:13 26.36135 50.49993 1991 ft 215 kts 165°
2026-05-05 20:13 26.34767 50.50641 1996 ft 214 kts 143°
2026-05-05 20:13 26.33727 50.51815 1957 ft 216 kts 125°
2026-05-05 20:13 26.32928 50.53197 1702 ft 205 kts 123°
2026-05-05 20:14 26.32193 50.54505 1417 ft 195 kts 123°
2026-05-05 20:14 26.31498 50.55707 1263 ft 170 kts 123°
2026-05-05 20:14 26.30880 50.56784 1034 ft 161 kts 123°
2026-05-05 20:14 26.30310 50.57793 864 ft 150 kts 124°
2026-05-05 20:15 26.29736 50.58739 656 ft 147 kts 123°
2026-05-05 20:15 26.29193 50.59685 503 ft 143 kts 124°
2026-05-05 20:15 26.28673 50.60610 317 ft 145 kts 123°
2026-05-05 20:15 26.28131 50.61551 132 ft 143 kts 122°
2026-05-05 20:16 26.27634 50.62412 15 ft 127 kts 122°
2026-05-05 20:16 26.27243 50.63091 13 ft 77 kts 123°
2026-05-05 20:16 26.27031 50.63457 13 ft 21 kts 125°
2026-05-05 20:16 26.26926 50.63460 12 ft 16 kts 212°
2026-05-05 20:17 26.26905 50.63445 14 ft 0 kts 213°
2026-05-05 20:18 26.26894 50.63437 12 ft 9 kts 213°
2026-05-05 20:19 26.26817 50.63382 13 ft 13 kts 213°
2026-05-05 20:19 26.26794 50.63306 14 ft 10 kts 291°
2026-05-05 20:19 26.26830 50.63242 14 ft 9 kts 302°
2026-05-05 20:19 26.26863 50.63183 15 ft 9 kts 303°
2026-05-05 20:20 26.26873 50.63129 14 ft 6 kts 239°
2026-05-05 20:20 26.26839 50.63103 14 ft 6 kts 211°
2026-05-05 20:20 26.26823 50.63092 16 ft 1 kts 211°
2026-05-05 20:20 26.26817 50.63088 15 ft 1 kts 211°
2026-05-05 20:21 26.26809 50.63083 14 ft 0 kts 211°